Time,TemperatureF,DewpointF,PressureIn,WindDirection,WindDirectionDegrees,WindSpeedMPH,WindSpeedGustMPH,Humidity,HourlyPrecipIn,Conditions,Clouds,dailyrainin,SolarRadiationWatts/m^2,SoftwareType,DateUTC
2013-02-09 00:00:00,44.2,40.0,30.00,East,82,3.0,3.0,85,0.00,,,0.58,0,Wunderground v.1.15,2013-02-09 05:00:00,
2013-02-09 00:30:00,43.9,37.5,30.01,NE,48,2.0,5.0,78,0.00,,,0.00,0,Wunderground v.1.15,2013-02-09 05:30:00,
2013-02-09 01:00:00,42.4,35.4,30.02,East,88,2.0,3.0,76,0.00,,,0.00,0,Wunderground v.1.15,2013-02-09 06:00:00,
2013-02-09 01:30:00,41.6,35.2,30.03,ESE,104,2.0,2.0,78,0.00,,,0.00,0,Wunderground v.1.15,2013-02-09 06:30:00,
2013-02-09 02:00:00,39.7,34.3,30.04,ENE,71,2.0,2.0,81,0.00,,,0.00,0,Wunderground v.1.15,2013-02-09 07:00:00,
2013-02-09 02:30:00,38.3,33.6,30.04,ENE,67,1.0,1.0,83,0.00,,,0.00,0,Wunderground v.1.15,2013-02-09 07:30:00,
2013-02-09 03:00:00,37.3,33.2,30.05,ENE,63,1.0,1.0,85,0.00,,,0.00,0,Wunderground v.1.15,2013-02-09 08:00:00,
2013-02-09 03:30:00,36.7,32.9,30.05,ENE,78,0.0,0.0,86,0.00,,,0.00,0,Wunderground v.1.15,2013-02-09 08:30:00,
2013-02-09 04:00:00,35.8,32.3,30.06,ENE,59,1.0,1.0,87,0.00,,,0.00,0,Wunderground v.1.15,2013-02-09 09:00:00,
2013-02-09 04:30:00,35.0,31.8,30.07,ENE,75,1.0,1.0,88,0.00,,,0.00,0,Wunderground v.1.15,2013-02-09 09:30:00,
2013-02-09 05:00:00,33.8,31.2,30.08,East,80,0.0,0.0,90,0.00,,,0.00,0,Wunderground v.1.15,2013-02-09 10:00:00,
2013-02-09 05:30:00,32.1,29.8,30.10,East,80,0.0,0.0,91,0.00,,,0.00,0,Wunderground v.1.15,2013-02-09 10:30:00,
2013-02-09 06:00:00,31.0,29.2,30.13,East,80,0.0,0.0,93,0.00,,,0.00,0,Wunderground v.1.15,2013-02-09 11:00:00,
2013-02-09 06:30:00,31.4,29.6,30.14,ENE,74,0.0,0.0,93,0.00,,,0.00,0,Wunderground v.1.15,2013-02-09 11:30:00,
2013-02-09 07:00:00,29.6,27.8,30.16,ENE,74,0.0,0.0,93,0.00,,,0.00,0,Wunderground v.1.15,2013-02-09 12:00:00,
2013-02-09 07:30:00,28.9,27.1,30.18,ENE,74,0.0,0.0,93,0.00,,,0.00,19,Wunderground v.1.15,2013-02-09 12:30:00,
2013-02-09 08:00:00,32.5,31.2,30.20,ENE,74,1.0,1.0,95,0.00,,,0.00,113,Wunderground v.1.15,2013-02-09 13:00:00,
2013-02-09 08:30:00,37.5,34.3,30.22,ENE,71,2.0,2.0,88,0.00,,,0.00,162,Wunderground v.1.15,2013-02-09 13:30:00,
2013-02-09 09:00:00,42.0,34.6,30.23,ESE,107,4.0,4.0,75,0.00,,,0.00,343,Wunderground v.1.15,2013-02-09 14:00:00,
2013-02-09 09:30:00,44.9,36.1,30.23,East,90,4.0,4.0,71,0.00,,,0.00,434,Wunderground v.1.15,2013-02-09 14:30:00,
2013-02-09 10:00:00,46.1,34.2,30.23,ESE,123,3.0,3.0,63,0.00,,,0.00,510,Wunderground v.1.15,2013-02-09 15:00:00,
2013-02-09 10:30:00,48.1,34.0,30.24,East,88,3.0,4.0,58,0.00,,,0.00,585,Wunderground v.1.15,2013-02-09 15:30:00,
2013-02-09 11:00:00,49.5,32.1,30.25,ESE,105,4.0,4.0,51,0.00,,,0.00,635,Wunderground v.1.15,2013-02-09 16:00:00,
2013-02-09 11:30:00,51.0,31.5,30.24,SSE,155,3.0,3.0,47,0.00,,,0.00,671,Wunderground v.1.15,2013-02-09 16:30:00,
2013-02-09 12:00:00,52.3,31.0,30.23,ESE,118,4.0,4.0,44,0.00,,,0.00,696,Wunderground v.1.15,2013-02-09 17:00:00,
2013-02-09 12:30:00,53.3,32.5,30.22,ENE,58,2.0,9.0,45,0.00,,,0.00,701,Wunderground v.1.15,2013-02-09 17:30:00,
2013-02-09 13:00:00,54.3,32.8,30.21,ESE,115,4.0,4.0,44,0.00,,,0.00,694,Wunderground v.1.15,2013-02-09 18:00:00,
2013-02-09 13:30:00,54.8,31.5,30.22,East,101,4.0,4.0,41,0.00,,,0.00,671,Wunderground v.1.15,2013-02-09 18:30:00,
2013-02-09 14:00:00,55.9,30.0,30.21,ESE,109,3.0,3.0,37,0.00,,,0.00,629,Wunderground v.1.15,2013-02-09 19:00:00,
2013-02-09 14:30:00,56.3,29.7,30.21,NE,47,4.0,5.0,36,0.00,,,0.00,577,Wunderground v.1.15,2013-02-09 19:30:00,
2013-02-09 15:00:00,56.3,30.3,30.20,ENE,66,3.0,3.0,37,0.00,,,0.00,497,Wunderground v.1.15,2013-02-09 20:00:00,
2013-02-09 15:30:00,56.6,30.6,30.21,NE,53,3.0,4.0,37,0.00,,,0.00,417,Wunderground v.1.15,2013-02-09 20:30:00,
2013-02-09 16:00:00,56.2,30.9,30.21,East,86,2.0,2.0,38,0.00,,,0.00,323,Wunderground v.1.15,2013-02-09 21:00:00,
2013-02-09 16:30:00,54.7,31.4,30.22,East,88,2.0,3.0,41,0.00,,,0.00,90,Wunderground v.1.15,2013-02-09 21:30:00,
2013-02-09 17:00:00,52.0,32.4,30.22,ENE,76,1.0,1.0,47,0.00,,,0.00,28,Wunderground v.1.15,2013-02-09 22:00:00,
2013-02-09 17:30:00,47.8,33.7,30.24,East,86,0.0,0.0,58,0.00,,,0.00,16,Wunderground v.1.15,2013-02-09 22:30:00,
2013-02-09 18:00:00,42.9,34.8,30.24,East,86,0.0,0.0,73,0.00,,,0.00,0,Wunderground v.1.15,2013-02-09 23:00:00,
2013-02-09 18:30:00,38.7,34.0,30.25,East,86,0.0,0.0,83,0.00,,,0.00,0,Wunderground v.1.15,2013-02-09 23:30:00,
2013-02-09 19:00:00,35.6,32.1,30.26,East,86,0.0,0.0,87,0.00,,,0.00,0,Wunderground v.1.15,2013-02-10 00:00:00,
2013-02-09 19:30:00,33.9,31.3,30.28,East,86,0.0,0.0,90,0.00,,,0.00,0,Wunderground v.1.15,2013-02-10 00:30:00,
2013-02-09 20:00:00,32.2,29.9,30.30,East,86,0.0,0.0,91,0.00,,,0.00,0,Wunderground v.1.15,2013-02-10 01:00:00,
2013-02-09 20:30:00,30.8,28.8,30.30,East,86,0.0,0.0,92,0.00,,,0.00,0,Wunderground v.1.15,2013-02-10 01:30:00,
2013-02-09 21:00:00,30.0,28.0,30.31,East,86,0.0,0.0,92,0.00,,,0.00,0,Wunderground v.1.15,2013-02-10 02:00:00,
2013-02-09 21:30:00,29.1,27.3,30.32,East,86,0.0,0.0,93,0.00,,,0.00,0,Wunderground v.1.15,2013-02-10 02:30:00,
2013-02-09 22:00:00,28.6,26.8,30.33,East,86,0.0,0.0,93,0.00,,,0.00,0,Wunderground v.1.15,2013-02-10 03:00:00,
2013-02-09 22:30:00,28.7,27.2,30.34,East,86,0.0,0.0,94,0.00,,,0.00,0,Wunderground v.1.15,2013-02-10 03:30:00,
2013-02-09 23:00:00,28.1,26.6,30.34,East,86,0.0,0.0,94,0.00,,,0.00,0,Wunderground v.1.15,2013-02-10 04:00:00,
2013-02-09 23:30:00,27.6,26.1,30.35,East,86,0.0,0.0,94,0.00,,,0.00,0,Wunderground v.1.15,2013-02-10 04:30:00,